Simultaneous Nadir Overpasses (SNOs) Predictions

Prediction of SNOs between FY3D and METOP-A Satellite Orbit:

Table of predicted SNOs for the next 14.0 days since TLE Epoch: 6/6/2020
Index Date (FY3D) Time (FY3D) Lat,Lon (FY3D) SZA (FY3D ) Date (METOP-A) Time (METOP-A) Lat,Lon (METOP-A) SZA (METOP-A ) Distance(km) Time Diff (sec)
1 06/08/2020 22:13:48 76.24,-169.57 53.83 06/08/2020 22:14:53 76.22,-166.04 53.55 93.34 65
2 06/08/2020 23:04:30 -76.17, -1.99 126.27 06/08/2020 23:05:37 -76.11, 0.92 126.54 77.93 67
3 06/08/2020 23:55:11 75.97, 166.02 53.49 06/08/2020 23:56:21 75.92, 167.62 53.31 43.53 70
4 06/09/2020 00:45:53 -75.89, -26.41 126.61 06/09/2020 00:47:05 -75.81, -25.39 126.78 29.24 72
5 06/09/2020 01:36:34 75.69, 141.58 53.15 06/09/2020 01:37:47 75.71, 141.62 53.14 2.94 73
6 06/09/2020 02:27:18 -75.71, -51.17 126.84 06/09/2020 02:28:29 -75.70, -51.09 126.87 2.32 71
7 06/09/2020 03:18:03 75.68, 116.22 53.14 06/09/2020 03:19:09 75.69, 116.22 53.12 0.79 66
8 06/09/2020 04:08:47 -75.70, -76.53 126.85 06/09/2020 04:09:51 -75.68, -76.49 126.89 3.01 64
9 06/09/2020 04:59:32 75.68, 90.86 53.13 06/09/2020 05:00:31 75.67, 90.81 53.10 1.66 59
10 06/09/2020 05:50:16 -75.70,-101.89 126.86 06/09/2020 05:51:12 -75.70,-101.75 126.88 3.80 56
11 06/09/2020 06:41:01 75.68, 65.50 53.12 06/09/2020 06:41:52 75.70, 65.56 53.12 2.75 51
12 06/09/2020 07:31:45 -75.70,-127.25 126.86 06/09/2020 07:32:34 -75.68,-127.15 126.90 2.95 49
13 06/09/2020 08:22:30 75.67, 40.14 53.11 06/09/2020 08:23:14 75.68, 40.15 53.10 0.55 44
14 06/09/2020 09:13:13 -75.65,-152.46 126.93 06/09/2020 09:13:56 -75.66,-152.56 126.92 3.27 43
15 06/09/2020 10:03:59 75.67, 14.78 53.10 06/09/2020 10:04:36 75.66, 14.75 53.08 1.79 37
16 06/09/2020 10:54:42 -75.64,-177.82 126.94 06/09/2020 10:55:18 -75.64,-177.96 126.94 3.85 36
17 06/09/2020 11:45:28 75.67, -10.59 53.09 06/09/2020 11:45:57 75.68, -10.51 53.09 2.74 29
18 06/09/2020 12:36:11 -75.64, 156.82 126.95 06/09/2020 12:36:39 -75.67, 156.78 126.92 3.47 28
19 06/09/2020 13:26:57 75.66, -35.95 53.08 06/09/2020 13:27:19 75.66, -35.91 53.07 1.00 22
20 06/09/2020 14:17:40 -75.64, 131.46 126.96 06/09/2020 14:18:01 -75.65, 131.38 126.94 2.61 21
21 06/09/2020 15:08:26 75.66, -61.31 53.07 06/09/2020 15:08:41 75.64, -61.32 53.05 2.16 15
22 06/09/2020 15:59:09 -75.63, 106.10 126.96 06/09/2020 15:59:23 -75.63, 105.97 126.96 3.39 14
23 06/09/2020 16:49:55 75.66, -86.67 53.07 06/09/2020 16:50:02 75.67, -86.57 53.07 2.91 7
24 06/09/2020 17:40:38 -75.63, 80.74 126.97 06/09/2020 17:40:44 -75.66, 80.72 126.95 2.93 6
25 06/09/2020 18:31:24 75.66,-112.03 53.06 06/09/2020 18:31:24 75.65,-111.98 53.05 1.66 0
26 06/09/2020 19:22:07 -75.63, 55.37 126.98 06/09/2020 19:22:06 -75.64, 55.31 126.97 1.96 1
27 06/09/2020 20:12:53 75.65,-137.39 53.05 06/09/2020 20:12:46 75.63,-137.38 53.03 2.68 7
28 06/09/2020 21:03:36 -75.63, 30.01 126.99 06/09/2020 21:03:28 -75.62, 29.91 126.99 3.01 8
29 06/09/2020 21:54:22 75.65,-162.75 53.04 06/09/2020 21:54:07 75.66,-162.64 53.04 3.24 15
30 06/09/2020 22:45:05 -75.62, 4.65 127.00 06/09/2020 22:44:49 -75.64, 4.65 126.97 2.43 16
31 06/09/2020 23:35:51 75.65, 171.89 53.03 06/09/2020 23:35:29 75.64, 171.96 53.02 2.36 22
32 06/10/2020 00:26:34 -75.62, -20.71 127.01 06/10/2020 00:26:11 -75.62, -20.75 126.99 1.31 23
33 06/10/2020 01:17:20 75.64, 146.52 53.02 06/10/2020 01:16:51 75.62, 146.55 53.00 3.29 29
34 06/10/2020 02:08:03 -75.62, -46.07 127.02 06/10/2020 02:07:33 -75.60, -46.15 127.01 2.73 30
35 06/10/2020 02:58:49 75.64, 121.16 53.01 06/10/2020 02:58:12 75.64, 121.30 53.02 3.69 37
36 06/10/2020 03:49:32 -75.61, -71.43 127.03 06/10/2020 03:48:54 -75.63, -71.41 127.00 2.04 38
37 06/10/2020 04:40:18 75.64, 95.80 53.01 06/10/2020 04:39:34 75.62, 95.89 53.00 3.08 44
38 06/10/2020 05:31:01 -75.61, -96.79 127.03 06/10/2020 05:30:16 -75.61, -96.82 127.02 0.70 45
39 06/10/2020 06:21:46 75.59, 70.59 52.94 06/10/2020 06:20:56 75.60, 70.49 52.98 3.13 50
40 06/10/2020 07:12:30 -75.61,-122.15 127.04 06/10/2020 07:11:38 -75.59,-122.22 127.04 2.60 52
41 06/10/2020 08:03:15 75.59, 45.23 52.93 06/10/2020 08:02:18 75.58, 45.09 52.96 3.93 57
42 06/10/2020 08:53:59 -75.60,-147.51 127.05 06/10/2020 08:52:59 -75.62,-147.48 127.02 1.82 60
43 06/10/2020 09:44:44 75.58, 19.87 52.93 06/10/2020 09:43:39 75.61, 19.83 52.97 3.11 65
44 06/10/2020 10:35:28 -75.60,-172.87 127.06 06/10/2020 10:34:21 -75.60,-172.88 127.04 0.41 67
45 06/10/2020 11:26:13 75.58, -5.49 52.92 06/10/2020 11:25:01 75.59, -5.57 52.95 2.43 72
46 06/10/2020 12:16:57 -75.60, 161.77 127.07 06/10/2020 12:15:43 -75.58, 161.72 127.06 2.64 74
47 06/10/2020 13:07:38 75.39, -30.27 52.69 06/10/2020 13:06:27 75.38, -31.55 52.79 35.84 71
48 06/10/2020 13:58:21 -75.36, 137.13 127.35 06/10/2020 13:57:10 -75.32, 135.61 127.26 43.12 71
49 06/10/2020 14:49:01 75.10, -54.78 52.35 06/10/2020 14:47:55 75.07, -57.78 52.56 85.74 66
50 06/10/2020 15:39:43 -75.03, 112.75 127.74 06/10/2020 15:38:38 -75.01, 109.39 127.49 96.61 65




NCC Satellite Simultaneous Nadir Overpasses (SNOs) Prediction Service
